326  
ASUS42 KMLB 271812  
RWRMLB  
HOURLY WEATHER ROUNDUP AROUND FLORIDA  
NATIONAL WEATHER SERVICE OFFICE MELBOURNE FL  
200 PM EDT THU APR 27 2017  
 
CITY SKY/WX TMP DP RH WIND PRES REMARKS
 
MELBOURNE SUNNY 86 73 65 SE21G29 29.95F  
FORT PIERCE MOSUNNY 88 74 63 SE22G29 29.96F  
ORLANDO INTL MOSUNNY 90 60 36 S7G18 29.94F  
DAYTONA BEACH MOSUNNY 90 60 36 S10 29.92F  
VERO BEACH SUNNY 87 74 64 SE22 29.96F  

   
..ELSEWHERE ACROSS CENTRAL FLORIDA
 
 
 
CITY SKY/WX TMP DP RH WIND PRES REMARKS
 
PATRICK AFB SUNNY 84 75 73 SE17 29.95F  
KSC SUNNY 89 69 52 S14 29.94S  
CAPE CANAVERAL SUNNY 87 73 63 SE17 29.94F  
TITUSVILLE MOSUNNY 90 72 55 SE13 29.95F  
ORLANDO EXEC SUNNY 90 61 37 SW9G18 29.94F  
LEESBURG SUNNY 91 62 37 S10 29.93F  
THE VILLAGES N/A 91 63 38 MISG 29.82F  
SANFORD SUNNY 91 59 33 S8G20 29.93F  
DELAND SUNNY 90 63 40 S12G18 29.92F  
NEW SMYRNA BCH MOSUNNY 88 68 51 E15 29.95F  
ORMOND BEACH SUNNY 88 66 48 SE12 29.92  
WINTER HAVEN MOSUNNY 91 60 35 S14 29.95F  
KISSIMMEE MOSUNNY 90 64 42 S12 29.95F  
OKEECHOBEE SUNNY 90 64 43 SE13 29.96F  
TAMPA MOSUNNY 87 69 54 SW10 29.94F  

   
..NORTHERN FLORIDA
 
 
 
CITY SKY/WX TMP DP RH WIND PRES REMARKS
 
PALM COAST SUNNY 90 61 37 S6G17 29.92F  
ST AUGUSTINE SUNNY 86 65 49 SE18 29.92F SMOKE  
OCALA SUNNY 90 61 37 S9 29.92F  
GAINESVILLE SUNNY 91 59 33 S13 29.90F  
JACKSONVILLE MOSUNNY 90 61 37 SE13G28 29.88F  
TALLAHASSEE PTSUNNY 87 66 49 S17G32 29.87F  

   
..ALONG THE SOUTHEAST COAST TO THE KEYS
 
 
 
CITY SKY/WX TMP DP RH WIND PRES REMARKS
 
STUART MOSUNNY 86 75 70 SE18G25 29.98F  
WEST PALM BCH PTSUNNY 87 73 62 SE18 29.97F  
MIAMI MOSUNNY 89 73 59 SE14 29.96F  
KEY WEST SUNNY 84 76 76 SE9 29.96F  

   
..MARINE REPORTS
 
 
 
STATION/POSITION TIME TEMP WIND PRES WAVE SWELL
 
AIR SEA DIR/SP/G HT/PER HT/PER  
(UTC) (F) (DEG/KT/KT) (MB) (FT/S) (FT/S)  
ST AUGUSTINE FP 1800 77 76 140/ 14/ 15 1014.0F  
20NM E CAPE CANA 1750 78 77 150/ 10/ 12 1015.9F 3/ 9 2/ 9  
120 E NEW SMYRNA 1750 77 78 170/ 12/ 16 1016.0F 5/ 9 3/ 9  
TRIDENT PIER 1742 82 78 130/ 9/ 14 1016.0F  
SEBASTIAN INLET 1800 78 140/ 16 1015.0  
6NM NE FPR INLET 1630 78 N/A 3/13 2/13  
SETTLEMENT PT GB 1800 80 160/ 12/ 15 1015.6F  

 
 
 
CLICK HERE TO GO TO PREVIOUS BULLETINS.

The Nexlab FL Page Main Text Page